Orbital Elements at Epoch 2458739.5 (2019-Sep-13.0) TDB
Reference: JPL 14 (heliocentric ecliptic J2000)
Element | Value | Uncertainty (1-sigma) | Units |
e | .9865348783605891 | 7.9094e-06 | |
a | 151.1346937410713 | 0.088819 | au |
q | 2.035047035158644 | 1.3454e-06 | au |
i | 15.31538130379544 | 2.622e-05 | deg |
node | 177.1884106440093 | 6.467e-05 | deg |
peri | 174.916615586373 | 0.00013676 | deg |
M | .04363008898195084 | 3.8349e-05 | deg |
tp | 2458657.251444324261 (2019-Jun-22.75144432) | 0.00025469 | TDB |
period | 678648.1699708444 1858.04 | 598.24 1.638 | d yr |
n | .0005304663239797229 | 4.6762e-07 | deg/d |
Q | 300.234340446984 | 0.17644 | au |
|
| | Orbit Determination Parameters
Additional Information
|